Regional Weather Roundup
Issued by NWS

Home | Current Version | Previous Version | Graphics & Text | Print | Product List | Glossary On
Versions: 1 2 3 4 5 6 7 8 9 10 11 12 13 14 15 16 17 18 19 20 21 22 23 24 25 26 27 28 29 30 31 32 33 34 35 36 37 38 39 40 41 42 43 44 45 46 47 48 49 50
000
ASUS43 KLMK 190410
RWRKY
KENTUCKY REGIONAL WEATHER ROUNDUP
NATIONAL WEATHER SERVICE LOUISVILLE KY
1100 PM EST SUN FEB 18 2018

NOTE "FAIR" INDICATES FEW OR NO CLOUDS BELOW 12,000 FEET
WITH NO SIGNIFICANT WEATHER AND/OR OBSTRUCTIONS TO VISIBILITY.

KYZ001>023-026-027-061>063-070>075-190500-
WESTERN AND SOUTH CENTRAL KENTUCKY

CITY           SKY/WX    TMP DP  RH WIND       PRES   REMARKS
PADUCAH        CLOUDY    55  38  52 VRB6      30.02S
HENDERSON      CLOUDY    49  37  63 SE9       30.04F
OWENSBORO      CLOUDY    50  37  61 SE9       30.06F
HOPKINSVILLE   CLOUDY    56  41  57 S7        30.07R
BOWLING GREEN  CLOUDY    53  40  61 CALM      30.11R
GLASGOW        CLOUDY    54  35  47 S5        30.11R
$$

KYZ024-025-028>034-038-045-046-053-190500-
NORTH CENTRAL KENTUCKY

CITY           SKY/WX    TMP DP  RH WIND       PRES   REMARKS
LOUISVILLE/SDF CLOUDY    48  35  60 SE5       30.11F
LOUISVILLE/LOU CLOUDY    48  36  63 S5        30.12F
FORT KNOX      CLOUDY    46  35  65 E5        30.10F
$$

KYZ035>037-039>044-047>052-055>060-089>105-190500-
NORTHEAST KENTUCKY

CITY           SKY/WX    TMP DP  RH WIND       PRES   REMARKS
LEXINGTON      MOCLDY    48  33  56 SE7       30.13R
COVINGTON      CLOUDY    42  34  73 SE10      30.12S
FRANKFORT      CLOUDY    47  32  56 SE5       30.11S
$$

KYZ054-064>069-076>088-106>120-190500-
SOUTHEAST KENTUCKY

CITY           SKY/WX    TMP DP  RH WIND       PRES   REMARKS
JACKSON        FAIR      48  31  51 VRB5      30.15F
LONDON         CLOUDY    50  35  56 SE3       30.15F
SOMERSET       CLOUDY    52  36  54 S5        30.16S
MIDDLESBORO    CLOUDY    47  42  82 CALM      30.22S
MONTICELLO     NOT AVBL
$$





USA.gov is the U.S. government's official web portal to all federal, state and local government web resources and services.